Data No, UTC Date,UTC Time,Latitude,Longitude,Course(deg),Temp(degC),Sal(psu)
154,2018/10/22,14:09,41-53.98N,143-24.90E,30,14.195,33.0499
155,2018/10/22,14:10,41-54.13N,143-25.01E,30,14.223,32.9846
156,2018/10/22,14:11,41-54.13N,143-25.01E,30,14.192,33.0286
157,2018/10/22,14:12,41-54.13N,143-25.01E,30,14.197,33.0308
158,2018/10/22,14:13,41-55.30N,143-25.95E,31,14.227,33.0317
159,2018/10/22,14:14,41-55.60N,143-26.19E,31,14.237,33.0327
160,2018/10/22,14:15,41-55.62N,143-26.20E,31,14.254,32.9514
161,2018/10/22,14:16,41-56.20N,143-26.67E,30,14.253,32.9797
162,2018/10/22,14:17,41-56.20N,143-26.67E,30,14.239,33.0224
163,2018/10/22,14:18,41-56.88N,143-27.22E,30,14.224,33.0297
164,2018/10/22,14:19,41-57.17N,143-27.44E,30,14.194,33.0221
165,2018/10/22,14:20,41-57.54N,143-27.75E,31,14.169,33.0136
166,2018/10/22,14:21,41-57.82N,143-27.98E,30,14.159,32.9883
167,2018/10/22,14:22,41-58.00N,143-28.13E,32,14.148,32.8769
168,2018/10/22,14:23,41-58.00N,143-28.13E,32,14.145,32.9276
169,2018/10/22,14:25,41-58.64N,143-28.65E,31,14.153,32.864
170,2018/10/22,14:26,41-58.64N,143-28.65E,31,14.156,32.8508
171,2018/10/22,14:27,41-59.77N,143-29.56E,31,14.111,32.8322
172,2018/10/22,14:28,42-00.09N,143-29.81E,30,14.005,32.8125
173,2018/10/22,14:29,42-00.26N,143-29.95E,30,13.824,32.8143
174,2018/10/22,14:30,42-00.62N,143-30.24E,31,13.879,32.8064
175,2018/10/22,14:31,42-00.94N,143-30.50E,29,13.956,32.8967
176,2018/10/22,14:32,42-01.36N,143-30.84E,30,13.987,32.9517
177,2018/10/22,14:33,42-01.63N,143-31.04E,30,13.961,32.995
178,2018/10/22,14:34,42-01.76N,143-31.15E,29,13.936,33.015
179,2018/10/22,14:35,42-02.26N,143-31.53E,29,13.958,33.0297
180,2018/10/22,14:36,42-02.26N,143-31.53E,29,13.98,33.0364
181,2018/10/22,14:37,42-02.96N,143-32.06E,28,14.031,33.0443
182,2018/10/22,14:38,42-03.28N,143-32.31E,30,14.084,33.0471
183,2018/10/22,14:39,42-03.60N,143-32.56E,30,14.04,32.9425
184,2018/10/22,14:40,42-03.92N,143-32.81E,30,13.983,33.0449
185,2018/10/22,14:41,42-04.26N,143-33.06E,30,13.919,33.0522
186,2018/10/22,14:42,42-04.56N,143-33.29E,29,13.929,33.0574
187,2018/10/22,14:43,42-04.74N,143-33.43E,29,13.847,33.0638
188,2018/10/22,14:44,42-05.20N,143-33.79E,29,13.82,33.0671
189,2018/10/22,14:45,42-05.37N,143-33.92E,29,13.663,33.0723
190,2018/10/22,14:46,42-05.80N,143-34.25E,29,13.651,33.0769
191,2018/10/22,14:47,42-06.16N,143-34.52E,29,13.612,33.0837
192,2018/10/22,14:48,42-06.48N,143-34.77E,29,13.455,33.0968
193,2018/10/22,14:49,42-06.74N,143-34.97E,29,13.338,33.1086
194,2018/10/22,14:50,42-07.12N,143-35.25E,28,13.347,33.1153
195,2018/10/22,14:51,42-07.44N,143-35.49E,28,13.432,33.1272
196,2018/10/22,14:52,42-07.80N,143-35.75E,28,13.632,33.1465
197,2018/10/22,14:53,42-08.09N,143-35.97E,30,13.868,33.1609
198,2018/10/22,14:54,42-08.41N,143-36.22E,30,14.038,33.1613
199,2018/10/22,14:55,42-08.68N,143-36.43E,30,14.13,33.1199
200,2018/10/22,14:56,42-09.05N,143-36.72E,30,14.153,33.0611
201,2018/10/22,14:57,42-09.35N,143-36.98E,30,14.164,33.0697
202,2018/10/22,14:58,42-09.69N,143-37.24E,30,14.189,33.0482
203,2018/10/22,14:59,42-10.01N,143-37.49E,30,14.189,33.0403
204,2018/10/22,15:00,42-10.34N,143-37.74E,30,14.187,33.038
205,2018/10/22,15:01,42-10.67N,143-38.01E,30,14.204,33.0373
206,2018/10/22,15:02,42-10.97N,143-38.24E,30,14.19,33.0378
207,2018/10/22,15:03,42-11.20N,143-38.42E,29,14.181,33.0301
208,2018/10/22,15:04,42-11.64N,143-38.78E,30,14.178,33.0425
209,2018/10/22,15:05,42-11.94N,143-39.00E,30,14.181,33.0447
210,2018/10/22,15:06,42-12.25N,143-39.24E,30,14.193,33.0484
211,2018/10/22,15:07,42-12.56N,143-39.49E,30,14.192,33.0494
212,2018/10/22,15:08,42-12.87N,143-39.73E,29,14.165,33.0525
213,2018/10/22,15:09,42-13.20N,143-39.98E,30,14.143,33.0546
214,2018/10/22,15:10,42-13.52N,143-40.24E,30,14.108,33.0546
215,2018/10/22,15:11,42-13.84N,143-40.49E,29,14.071,33.0557
216,2018/10/22,15:12,42-14.17N,143-40.74E,29,14.019,33.0576
217,2018/10/22,15:13,42-14.49N,143-40.98E,29,13.935,33.0628
218,2018/10/22,15:14,42-14.81N,143-41.23E,29,13.869,33.0688
219,2018/10/22,15:15,42-15.13N,143-41.47E,29,13.829,33.0782
220,2018/10/22,15:16,42-15.40N,143-41.68E,30,13.787,33.0879
221,2018/10/22,15:17,42-15.77N,143-41.97E,30,13.774,33.1046
222,2018/10/22,15:18,42-16.10N,143-42.22E,29,13.735,33.1154
223,2018/10/22,15:19,42-16.39N,143-42.45E,29,13.634,33.1251
224,2018/10/22,15:20,42-16.74N,143-42.73E,30,13.407,33.1333
225,2018/10/22,15:21,42-17.06N,143-42.98E,29,13.363,33.1388
226,2018/10/22,15:22,42-17.38N,143-43.22E,28,13.339,33.1328
227,2018/10/22,15:23,42-17.71N,143-43.47E,29,13.314,33.1444
228,2018/10/22,15:24,42-18.03N,143-43.72E,30,13.373,33.1453
229,2018/10/22,15:25,42-18.34N,143-43.97E,30,13.389,33.1476
230,2018/10/22,15:26,42-18.67N,143-44.22E,30,13.412,33.1576
231,2018/10/22,15:27,42-18.99N,143-44.48E,29,13.45,33.1637
232,2018/10/22,15:28,42-19.31N,143-44.72E,30,13.43,33.1658
233,2018/10/22,15:29,42-19.64N,143-44.97E,29,13.441,33.1647
234,2018/10/22,15:30,42-19.94N,143-45.20E,30,13.469,33.1639
235,2018/10/22,15:31,42-20.28N,143-45.47E,29,13.491,33.1632
236,2018/10/22,15:32,42-20.58N,143-45.71E,30,13.536,33.1621
237,2018/10/22,15:33,42-20.89N,143-45.96E,30,13.558,33.1601
238,2018/10/22,15:34,42-21.24N,143-46.24E,30,13.563,33.1577
239,2018/10/22,15:35,42-21.56N,143-46.49E,30,13.554,33.1536
240,2018/10/22,15:36,42-21.87N,143-46.74E,30,13.592,33.1503
241,2018/10/22,15:37,42-22.19N,143-47.00E,31,13.602,33.146
242,2018/10/22,15:38,42-22.51N,143-47.26E,31,13.61,33.1441
243,2018/10/22,15:39,42-22.82N,143-47.52E,31,13.63,33.1424
244,2018/10/22,15:40,42-23.14N,143-47.78E,30,13.679,33.1414
245,2018/10/22,15:41,42-23.46N,143-48.03E,30,13.687,33.1409
246,2018/10/22,15:42,42-23.77N,143-48.29E,31,13.695,33.1402
247,2018/10/22,15:43,42-24.08N,143-48.55E,31,13.706,33.1368
248,2018/10/22,15:44,42-24.41N,143-48.81E,32,13.741,33.133
249,2018/10/22,15:45,42-24.72N,143-49.07E,31,13.755,33.1305
250,2018/10/22,15:46,42-25.05N,143-49.34E,30,13.78,33.13
251,2018/10/22,15:47,42-25.36N,143-49.58E,30,13.776,33.1277
252,2018/10/22,15:48,42-25.67N,143-49.83E,29,13.775,33.1167
253,2018/10/22,15:49,42-26.00N,143-50.07E,28,13.801,33.1065
254,2018/10/22,15:50,42-26.33N,143-50.31E,27,13.843,33.104
255,2018/10/22,15:51,42-26.66N,143-50.54E,27,13.871,33.1131
256,2018/10/22,15:52,42-26.99N,143-50.78E,27,13.896,33.1243
257,2018/10/22,15:53,42-27.33N,143-51.02E,27,13.924,33.1319
258,2018/10/22,15:54,42-27.65N,143-51.25E,27,13.936,33.1332
259,2018/10/22,15:55,42-27.99N,143-51.49E,27,13.919,33.1325
260,2018/10/22,15:56,42-28.35N,143-51.74E,27,13.91,33.1302
261,2018/10/22,15:57,42-28.65N,143-51.96E,27,13.867,33.1281
262,2018/10/22,15:58,42-28.98N,143-52.19E,27,13.819,33.1278
263,2018/10/22,15:59,42-29.31N,143-52.43E,26,13.763,33.1277
264,2018/10/22,16:00,42-29.65N,143-52.66E,27,13.868,33.128
265,2018/10/22,16:01,42-29.97N,143-52.89E,27,13.964,33.1296
266,2018/10/22,16:02,42-30.30N,143-53.12E,27,14.039,33.1321
267,2018/10/22,16:03,42-30.64N,143-53.36E,27,14.078,33.1319
268,2018/10/22,16:04,42-30.96N,143-53.58E,27,14.101,33.1281
269,2018/10/22,16:05,42-31.31N,143-53.82E,26,14.113,33.1221
270,2018/10/22,16:06,42-31.63N,143-54.04E,27,14.111,33.1184
271,2018/10/22,16:07,42-31.97N,143-54.28E,27,14.114,33.1154
272,2018/10/22,16:08,42-32.30N,143-54.51E,27,14.089,33.1139
273,2018/10/22,16:09,42-32.63N,143-54.74E,27,14.082,33.1133
274,2018/10/22,16:10,42-32.96N,143-54.97E,27,14.063,33.1143
275,2018/10/22,16:11,42-33.29N,143-55.20E,27,14.042,33.1151
276,2018/10/22,16:12,42-33.63N,143-55.43E,27,14.006,33.1173
277,2018/10/22,16:13,42-33.97N,143-55.67E,27,14.006,33.1188
278,2018/10/22,16:14,42-34.24N,143-55.86E,27,13.986,33.101
279,2018/10/22,16:15,42-34.62N,143-56.13E,27,13.94,33.1236
280,2018/10/22,16:16,42-34.94N,143-56.36E,27,13.895,33.1251
281,2018/10/22,16:17,42-35.24N,143-56.58E,28,13.877,33.1244
282,2018/10/22,16:18,42-35.64N,143-56.87E,28,13.8,33.1293
283,2018/10/22,16:19,42-35.92N,143-57.09E,28,13.571,33.1318
284,2018/10/22,16:20,42-36.25N,143-57.33E,28,13.612,33.1346
285,2018/10/22,16:21,42-36.58N,143-57.58E,29,13.579,33.1375
286,2018/10/22,16:22,42-36.91N,143-57.83E,29,13.578,33.1506
287,2018/10/22,16:23,42-37.24N,143-58.08E,29,13.659,33.1626
288,2018/10/22,16:24,42-37.56N,143-58.32E,29,13.647,33.1679
289,2018/10/22,16:25,42-37.90N,143-58.57E,27,13.583,33.1717
290,2018/10/22,16:26,42-38.24N,143-58.82E,28,13.518,33.1699
291,2018/10/22,16:27,42-38.51N,143-59.03E,28,13.456,33.1226
292,2018/10/22,16:28,42-38.93N,143-59.34E,28,13.406,33.1715
293,2018/10/22,16:29,42-39.23N,143-59.56E,28,13.348,33.1742
294,2018/10/22,16:30,42-39.56N,143-59.81E,29,13.337,33.1772
295,2018/10/22,16:31,42-39.89N,144-00.05E,27,13.295,33.1813
296,2018/10/22,16:32,42-40.24N,144-00.29E,26,13.296,33.1835
297,2018/10/22,16:33,42-40.57N,144-00.52E,27,13.252,33.185
298,2018/10/22,16:34,42-40.91N,144-00.75E,27,13.159,33.1867
299,2018/10/22,16:35,42-41.25N,144-00.99E,27,13.133,33.1885
300,2018/10/22,16:36,42-41.59N,144-01.24E,28,13.123,33.1896
301,2018/10/22,16:37,42-41.92N,144-01.49E,29,13.117,33.1949
302,2018/10/22,16:38,42-42.25N,144-01.75E,30,13.109,33.196
303,2018/10/22,16:39,42-42.58N,144-02.01E,30,13.098,33.1959
304,2018/10/22,16:40,42-42.90N,144-02.27E,30,13.094,33.194
305,2018/10/22,16:41,42-43.23N,144-02.54E,30,13.1,33.1939
306,2018/10/22,16:42,42-43.56N,144-02.81E,30,13.099,33.1952
307,2018/10/22,16:43,42-43.90N,144-03.08E,31,13.107,33.1981
308,2018/10/22,16:44,42-44.27N,144-03.38E,30,13.107,33.2043
309,2018/10/22,16:45,42-44.56N,144-03.60E,30,13.119,33.2058
310,2018/10/22,16:46,42-44.88N,144-03.88E,30,13.102,33.2062
311,2018/10/22,16:47,42-45.22N,144-04.15E,30,13.074,33.2069
312,2018/10/22,16:48,42-45.54N,144-04.42E,30,13.073,33.2035
313,2018/10/22,16:49,42-45.87N,144-04.69E,30,13.099,33.2014
314,2018/10/22,16:50,42-46.24N,144-05.00E,31,13.121,33.1965
315,2018/10/22,16:51,42-46.53N,144-05.24E,31,13.118,33.1902
316,2018/10/22,16:52,42-46.86N,144-05.51E,31,13.149,33.1878
317,2018/10/22,16:53,42-47.19N,144-05.78E,31,13.158,33.188
318,2018/10/22,16:54,42-47.51N,144-06.05E,31,13.164,33.1875
319,2018/10/22,16:55,42-47.84N,144-06.32E,30,13.163,33.1876
320,2018/10/22,16:56,42-48.17N,144-06.58E,29,13.161,33.1862
321,2018/10/22,16:57,42-48.38N,144-06.73E,28,13.125,33.1833
322,2018/10/22,16:58,42-48.88N,144-07.13E,29,13.109,33.1809
323,2018/10/22,16:59,42-49.16N,144-07.34E,30,13.122,33.1221
324,2018/10/22,17:00,42-49.49N,144-07.59E,29,13.131,33.1744
325,2018/10/22,17:01,42-49.81N,144-07.84E,30,13.251,33.1738
326,2018/10/22,17:02,42-50.13N,144-08.09E,29,13.345,33.1762
327,2018/10/22,17:03,42-50.45N,144-08.33E,29,13.365,33.1798
328,2018/10/22,17:04,42-50.77N,144-08.58E,29,13.354,33.1822
329,2018/10/22,17:05,42-51.12N,144-08.83E,29,13.37,33.1819
330,2018/10/22,17:06,42-51.41N,144-09.08E,29,13.416,33.1807
331,2018/10/22,17:07,42-51.74N,144-09.33E,29,13.452,33.1842
332,2018/10/22,17:08,42-52.06N,144-09.57E,29,13.438,33.1809
333,2018/10/22,17:09,42-52.37N,144-09.83E,31,13.389,33.175
334,2018/10/22,17:10,42-52.68N,144-10.10E,34,13.404,33.1653
335,2018/10/22,17:11,42-52.98N,144-10.39E,34,13.483,33.1642
336,2018/10/22,17:12,42-53.29N,144-10.67E,34,13.525,33.1646
337,2018/10/22,17:13,42-53.59N,144-10.97E,34,13.529,33.154
338,2018/10/22,17:14,42-53.89N,144-11.25E,34,13.533,33.1379
339,2018/10/22,17:15,42-54.19N,144-11.53E,34,13.538,33.1207
340,2018/10/22,17:16,42-54.50N,144-11.81E,36,13.624,33.1111
341,2018/10/22,17:17,42-54.81N,144-12.11E,35,13.724,33.1044
342,2018/10/22,17:18,42-55.10N,144-12.40E,35,13.781,33.0957
343,2018/10/22,17:19,42-55.40N,144-12.68E,35,13.877,33.0803
344,2018/10/22,17:20,42-55.70N,144-12.97E,34,13.928,33.0503
345,2018/10/22,17:21,42-56.01N,144-13.26E,35,13.969,33.0111
346,2018/10/22,17:22,42-56.30N,144-13.56E,38,13.908,32.9651
347,2018/10/22,17:23,42-56.58N,144-13.87E,39,13.758,32.9114
348,2018/10/22,17:24,42-56.86N,144-14.19E,39,13.802,32.8875
349,2018/10/22,17:25,42-57.14N,144-14.51E,40,13.858,32.8297
350,2018/10/22,17:26,42-57.41N,144-14.85E,43,13.896,32.694
351,2018/10/22,17:27,42-57.66N,144-15.19E,45,13.97,32.5393
352,2018/10/22,17:28,42-57.91N,144-15.54E,47,13.976,32.5754
353,2018/10/22,17:29,42-58.16N,144-15.90E,47,14.015,32.5584
354,2018/10/22,17:30,42-58.35N,144-16.17E,47,14.08,32.5837
355,2018/10/22,17:31,42-58.51N,144-16.46E,49,14.084,32.6977
356,2018/10/22,17:32,42-58.66N,144-16.74E,55,14.051,32.7974
357,2018/10/22,17:33,42-58.78N,144-17.01E,59,14.061,32.8626
358,2018/10/22,17:34,42-58.90N,144-17.29E,59,14.038,32.8691
359,2018/10/22,17:35,42-59.02N,144-17.57E,61,14.025,32.8465
360,2018/10/22,17:36,42-59.13N,144-17.84E,62,14.046,32.8452
620,2018/10/22,21:56,42-59.11N,144-17.81E,244,14.047,32.0257
621,2018/10/22,21:57,42-59.00N,144-17.51E,244,14.045,32.1692
622,2018/10/22,21:58,42-58.89N,144-17.19E,244,14.041,32.267
623,2018/10/22,21:59,42-58.75N,144-16.89E,228,13.924,32.3296
624,2018/10/22,22:00,42-58.52N,144-16.71E,207,13.818,32.4313
625,2018/10/22,22:01,42-58.28N,144-16.53E,208,13.998,32.5342
626,2018/10/22,22:02,42-58.03N,144-16.35E,208,14.054,32.5839
627,2018/10/22,22:03,42-57.77N,144-16.16E,208,13.984,32.5637
628,2018/10/22,22:04,42-57.48N,144-15.92E,212,13.832,32.6883
629,2018/10/22,22:05,42-57.25N,144-15.71E,213,13.797,32.7761
630,2018/10/22,22:06,42-56.99N,144-15.46E,214,13.67,32.7704
631,2018/10/22,22:07,42-56.72N,144-15.22E,214,13.584,32.6911
632,2018/10/22,22:08,42-56.46N,144-14.96E,214,13.576,32.7007
633,2018/10/22,22:09,42-56.18N,144-14.70E,215,13.546,32.7831
634,2018/10/22,22:10,42-55.92N,144-14.44E,215,13.501,32.8577
635,2018/10/22,22:11,42-55.64N,144-14.18E,214,13.486,32.9071
636,2018/10/22,22:12,42-55.37N,144-13.91E,215,13.468,32.9597
637,2018/10/22,22:13,42-55.08N,144-13.64E,215,13.432,32.9878
638,2018/10/22,22:14,42-54.80N,144-13.37E,215,13.419,33.0116
639,2018/10/22,22:15,42-54.51N,144-13.09E,215,13.39,33.035
640,2018/10/22,22:16,42-54.22N,144-12.81E,214,13.361,33.0493
641,2018/10/22,22:17,42-53.93N,144-12.54E,215,13.357,33.0601
642,2018/10/22,22:18,42-53.64N,144-12.25E,215,13.347,33.0668
643,2018/10/22,22:19,42-53.34N,144-11.97E,215,13.31,33.075
644,2018/10/22,22:20,42-53.04N,144-11.68E,215,13.283,33.0817
645,2018/10/22,22:21,42-52.74N,144-11.39E,215,13.195,33.086
646,2018/10/22,22:22,42-52.44N,144-11.10E,214,13.099,33.0895
647,2018/10/22,22:23,42-52.13N,144-10.81E,215,13.116,33.0937
648,2018/10/22,22:24,42-51.83N,144-10.52E,215,13.13,33.099
649,2018/10/22,22:25,42-51.53N,144-10.23E,214,13.175,33.1116
650,2018/10/22,22:26,42-51.22N,144-09.93E,214,13.209,33.1272
651,2018/10/22,22:27,42-50.90N,144-09.63E,215,13.214,33.1397
652,2018/10/22,22:28,42-50.59N,144-09.34E,214,13.247,33.1478
653,2018/10/22,22:29,42-50.28N,144-09.04E,214,13.298,33.1508
654,2018/10/22,22:30,42-49.96N,144-08.74E,214,13.302,33.1491
655,2018/10/22,22:31,42-49.64N,144-08.44E,214,13.256,33.1477
656,2018/10/22,22:32,42-49.33N,144-08.14E,215,13.205,33.1443
657,2018/10/22,22:33,42-49.01N,144-07.85E,214,13.126,33.1443
658,2018/10/22,22:34,42-48.70N,144-07.55E,214,13.053,33.1461
659,2018/10/22,22:35,42-48.41N,144-07.19E,228,13.082,33.1511
660,2018/10/22,22:36,42-48.16N,144-06.80E,227,13.103,33.1551
661,2018/10/22,22:37,42-47.91N,144-06.41E,228,13.148,33.153
662,2018/10/22,22:38,42-47.66N,144-06.03E,228,13.114,33.1498
663,2018/10/22,22:39,42-47.41N,144-05.64E,229,13.113,33.1492
664,2018/10/22,22:40,42-47.16N,144-05.24E,230,13.116,33.146
665,2018/10/22,22:41,42-46.93N,144-04.83E,233,13.11,33.1402
666,2018/10/22,22:42,42-46.66N,144-04.45E,221,13.109,33.1345
667,2018/10/22,22:43,42-46.34N,144-04.19E,209,13.13,33.1319
668,2018/10/22,22:44,42-46.01N,144-03.93E,210,13.149,33.1291
669,2018/10/22,22:45,42-45.69N,144-03.67E,211,13.15,33.1318
670,2018/10/22,22:46,42-45.36N,144-03.39E,211,13.117,33.1391
671,2018/10/22,22:47,42-45.04N,144-03.11E,212,13.138,33.1472
672,2018/10/22,22:48,42-44.71N,144-02.83E,211,13.198,33.1524
673,2018/10/22,22:49,42-44.38N,144-02.56E,211,13.255,33.146
674,2018/10/22,22:50,42-44.06N,144-02.30E,210,13.281,33.1324
675,2018/10/22,22:51,42-43.73N,144-02.04E,210,13.284,33.1182
676,2018/10/22,22:52,42-43.39N,144-01.77E,210,13.275,33.1094
677,2018/10/22,22:53,42-43.05N,144-01.50E,209,13.217,33.105
678,2018/10/22,22:54,42-42.72N,144-01.24E,210,13.14,33.0974
679,2018/10/22,22:55,42-42.38N,144-00.98E,210,13.112,33.0898
680,2018/10/22,22:56,42-42.04N,144-00.71E,210,13.09,33.0936
681,2018/10/22,22:57,42-41.71N,144-00.45E,210,13.081,33.1189
682,2018/10/22,22:58,42-41.36N,144-00.18E,210,13.08,33.1333
683,2018/10/22,22:59,42-41.03N,143-59.92E,210,13.074,33.1401
684,2018/10/22,23:00,42-40.67N,143-59.64E,210,13.089,33.1426
685,2018/10/22,23:01,42-40.35N,143-59.38E,209,13.114,33.1443
686,2018/10/22,23:02,42-40.00N,143-59.12E,209,13.13,33.1448
687,2018/10/22,23:03,42-39.66N,143-58.85E,209,13.147,33.1438
688,2018/10/22,23:04,42-39.33N,143-58.59E,209,13.158,33.143
689,2018/10/22,23:05,42-38.99N,143-58.33E,209,13.168,33.1437
690,2018/10/22,23:06,42-38.65N,143-58.07E,209,13.17,33.1436
691,2018/10/22,23:07,42-38.31N,143-57.80E,210,13.167,33.1446
692,2018/10/22,23:08,42-37.98N,143-57.54E,209,13.158,33.1459
693,2018/10/22,23:09,42-37.64N,143-57.28E,209,13.154,33.148
694,2018/10/22,23:10,42-37.30N,143-57.01E,209,13.166,33.1464
695,2018/10/22,23:11,42-36.97N,143-56.75E,209,13.178,33.1462
696,2018/10/22,23:12,42-36.64N,143-56.50E,209,13.204,33.1457
697,2018/10/22,23:13,42-36.30N,143-56.24E,209,13.234,33.1447
698,2018/10/22,23:14,42-35.96N,143-55.98E,209,13.261,33.1439
699,2018/10/22,23:15,42-35.64N,143-55.73E,209,13.296,33.1449
700,2018/10/22,23:16,42-35.31N,143-55.47E,210,13.353,33.1441
701,2018/10/22,23:17,42-34.98N,143-55.22E,210,13.409,33.1437
702,2018/10/22,23:18,42-34.64N,143-54.96E,209,13.469,33.1415
703,2018/10/22,23:19,42-34.31N,143-54.70E,209,13.515,33.1405
704,2018/10/22,23:20,42-33.99N,143-54.45E,209,13.546,33.1379
705,2018/10/22,23:21,42-33.66N,143-54.20E,209,13.564,33.1331
706,2018/10/22,23:22,42-33.34N,143-53.95E,209,13.589,33.129
707,2018/10/22,23:23,42-33.01N,143-53.69E,209,13.61,33.1258
708,2018/10/22,23:24,42-32.67N,143-53.44E,209,13.63,33.1226
709,2018/10/22,23:25,42-32.35N,143-53.19E,209,13.64,33.1203
710,2018/10/22,23:26,42-32.02N,143-52.94E,209,13.65,33.118
711,2018/10/22,23:27,42-31.69N,143-52.69E,209,13.667,33.1164
712,2018/10/22,23:28,42-31.35N,143-52.43E,209,13.682,33.1158
713,2018/10/22,23:29,42-31.03N,143-52.18E,209,13.702,33.1156
714,2018/10/22,23:30,42-30.70N,143-51.93E,209,13.734,33.1146
715,2018/10/22,23:31,42-30.36N,143-51.68E,207,13.754,33.1142
716,2018/10/22,23:32,42-30.03N,143-51.44E,207,13.762,33.113
717,2018/10/22,23:33,42-29.69N,143-51.22E,206,13.753,33.1119
718,2018/10/22,23:34,42-29.35N,143-51.00E,205,13.731,33.1102
719,2018/10/22,23:35,42-29.01N,143-50.78E,205,13.734,33.1081
720,2018/10/22,23:36,42-28.66N,143-50.56E,205,13.734,33.1077
721,2018/10/22,23:37,42-28.31N,143-50.33E,205,13.747,33.1085
722,2018/10/22,23:38,42-27.97N,143-50.11E,205,13.759,33.1073
723,2018/10/22,23:39,42-27.63N,143-49.89E,205,13.773,33.1073
724,2018/10/22,23:40,42-27.29N,143-49.67E,207,13.792,33.1062
725,2018/10/22,23:41,42-26.93N,143-49.43E,205,13.78,33.1042
726,2018/10/22,23:42,42-26.60N,143-49.22E,205,13.763,33.1028
727,2018/10/22,23:43,42-26.26N,143-48.99E,205,13.72,33.101
728,2018/10/22,23:44,42-25.92N,143-48.77E,205,13.656,33.1009
729,2018/10/22,23:45,42-25.57N,143-48.55E,204,13.595,33.1021
730,2018/10/22,23:46,42-25.23N,143-48.34E,205,13.643,33.1056
731,2018/10/22,23:47,42-24.89N,143-48.11E,205,13.683,33.109
732,2018/10/22,23:48,42-24.55N,143-47.89E,205,13.694,33.1079
733,2018/10/22,23:49,42-24.20N,143-47.66E,205,13.674,33.092
734,2018/10/22,23:50,42-23.87N,143-47.44E,206,13.69,33.0743
735,2018/10/22,23:51,42-23.61N,143-47.27E,205,13.705,33.0693
736,2018/10/22,23:52,42-23.19N,143-47.00E,205,13.715,33.075
737,2018/10/22,23:53,42-22.85N,143-46.78E,206,13.721,33.082
738,2018/10/22,23:54,42-22.51N,143-46.55E,207,13.718,33.0872
739,2018/10/22,23:55,42-22.17N,143-46.30E,208,13.741,33.0904
740,2018/10/22,23:56,42-21.85N,143-46.05E,210,13.755,33.0916
741,2018/10/22,23:57,42-21.52N,143-45.79E,209,13.796,33.0913
742,2018/10/22,23:58,42-21.20N,143-45.54E,210,13.816,33.0903
743,2018/10/22,23:59,42-20.88N,143-45.30E,209,13.81,33.0811
1,2018/10/23,0:00,42-20.55N,143-45.04E,209,13.812,33.0674
2,2018/10/23,0:01,42-20.23N,143-44.80E,209,13.808,33.0545
3,2018/10/23,0:02,42-19.90N,143-44.54E,209,13.798,33.0488
4,2018/10/23,0:03,42-19.57N,143-44.29E,209,13.788,33.0446
5,2018/10/23,0:04,42-19.25N,143-44.03E,209,13.753,33.0391
6,2018/10/23,0:05,42-18.92N,143-43.77E,210,13.753,33.0329
7,2018/10/23,0:06,42-18.59N,143-43.52E,209,13.75,33.0304
8,2018/10/23,0:07,42-18.27N,143-43.27E,209,13.715,33.0301
9,2018/10/23,0:08,42-17.94N,143-43.02E,209,13.69,33.0323
10,2018/10/23,0:09,42-17.61N,143-42.76E,209,13.686,33.0377
11,2018/10/23,0:10,42-17.28N,143-42.51E,210,13.66,33.0446
12,2018/10/23,0:11,42-16.96N,143-42.25E,210,13.624,33.0577
13,2018/10/23,0:12,42-16.64N,143-41.99E,210,13.606,33.0649
14,2018/10/23,0:13,42-16.31N,143-41.73E,210,13.609,33.0679
15,2018/10/23,0:14,42-15.98N,143-41.48E,210,13.578,33.075
16,2018/10/23,0:15,42-15.66N,143-41.22E,210,13.574,33.0755
17,2018/10/23,0:16,42-15.32N,143-40.96E,210,13.524,33.0707
18,2018/10/23,0:17,42-15.00N,143-40.72E,210,13.499,33.0694
19,2018/10/23,0:18,42-14.68N,143-40.46E,210,13.525,33.0752
20,2018/10/23,0:19,42-14.36N,143-40.20E,212,13.531,33.0827
21,2018/10/23,0:20,42-14.04N,143-39.92E,212,13.517,33.0858
22,2018/10/23,0:21,42-13.81N,143-39.72E,213,13.507,33.09
23,2018/10/23,0:22,42-13.42N,143-39.37E,214,13.491,33.0948
24,2018/10/23,0:23,42-13.11N,143-39.10E,213,13.482,33.0986
25,2018/10/23,0:24,42-12.80N,143-38.82E,213,13.469,33.1016
26,2018/10/23,0:25,42-12.49N,143-38.54E,213,13.48,33.1032
27,2018/10/23,0:26,42-12.17N,143-38.26E,213,13.506,33.1051
28,2018/10/23,0:27,42-11.86N,143-37.98E,213,13.521,33.1064
29,2018/10/23,0:28,42-11.55N,143-37.70E,213,13.555,33.1073
30,2018/10/23,0:29,42-11.24N,143-37.43E,213,13.565,33.1084
31,2018/10/23,0:30,42-10.93N,143-37.15E,213,13.549,33.1098
32,2018/10/23,0:31,42-10.62N,143-36.87E,213,13.464,33.1107
33,2018/10/23,0:32,42-10.30N,143-36.59E,212,13.392,33.1098
34,2018/10/23,0:33,42-09.98N,143-36.32E,213,13.339,33.1107
35,2018/10/23,0:34,42-09.66N,143-36.03E,212,13.322,33.1102
36,2018/10/23,0:35,42-09.34N,143-35.75E,213,13.393,33.1071
37,2018/10/23,0:36,42-09.03N,143-35.47E,213,13.472,33.1052
38,2018/10/23,0:37,42-08.68N,143-35.17E,212,13.539,33.1056
39,2018/10/23,0:38,42-08.40N,143-34.92E,213,13.579,33.104
40,2018/10/23,0:39,42-08.09N,143-34.65E,212,13.578,33.1056
41,2018/10/23,0:40,42-07.77N,143-34.36E,213,13.534,33.1066
42,2018/10/23,0:41,42-07.45N,143-34.09E,213,13.483,33.1063
43,2018/10/23,0:42,42-07.13N,143-33.81E,212,13.47,33.1121
44,2018/10/23,0:43,42-06.82N,143-33.54E,212,13.456,33.1221
45,2018/10/23,0:44,42-06.50N,143-33.26E,213,13.428,33.1313
46,2018/10/23,0:45,42-06.18N,143-32.98E,212,13.423,33.1367
47,2018/10/23,0:46,42-05.86N,143-32.70E,212,13.429,33.1388
48,2018/10/23,0:47,42-05.54N,143-32.43E,212,13.435,33.1392
49,2018/10/23,0:48,42-05.22N,143-32.15E,211,13.427,33.1348
50,2018/10/23,0:49,42-04.90N,143-31.87E,212,13.446,33.1285
51,2018/10/23,0:50,42-04.58N,143-31.59E,212,13.453,33.1272
52,2018/10/23,0:51,42-04.25N,143-31.31E,212,13.434,33.1302
53,2018/10/23,0:52,42-03.93N,143-31.03E,212,13.413,33.1356
54,2018/10/23,0:53,42-03.61N,143-30.76E,212,13.397,33.1398
55,2018/10/23,0:54,42-03.30N,143-30.48E,212,13.37,33.1362
56,2018/10/23,0:55,42-02.98N,143-30.20E,212,13.395,33.1235
57,2018/10/23,0:56,42-02.66N,143-29.92E,213,13.417,33.1084
58,2018/10/23,0:57,42-02.33N,143-29.64E,212,13.43,33.0905
59,2018/10/23,0:58,42-02.01N,143-29.36E,212,13.434,33.0779
60,2018/10/23,0:59,42-01.69N,143-29.09E,213,13.454,33.0723
61,2018/10/23,1:00,42-01.37N,143-28.81E,212,13.457,33.0712